Temperature
22 22 22 21 21 21 21 21 20 20 20 20 20 20 19 19 19 19 19 19 19 19 19 18 18 18 18 18 18 18 18 18 17 18 18 18 18 18 18 18 18 17 17
22 22 22 21 21 21 21 21 20 20 20 20 20 19 19 19 19 19 19 19 19 18 18 18 18 18 18 18 18 18 18 18 17 17 17 17 18 18 18 18 18 18 17
22 22 22 22 21 21 21 21 20 20 20 20 20 19 19 19 19 19 19 19 19 18 18 18 18 18 18 18 18 18 18 17 17 17 17 17 17 17 18 18 18 18 17
22 22 22 22 22 22 21 21 20 20 20 20 20 19 19 19 19 19 19 19 18 18 18 18 18 18 18 18 18 18 17 17 17 17 17 17 17 17 17 17 17 17 17
22 23 22 22 22 22 21 21 20 20 20 20 19 19 19 19 19 19 19 19 18 18 18 18 18 18 18 18 17 17 17 17 17 17 17 17 17 17 17 17 17 17 17
23 23 23 22 22 21 21 21 21 20 20 20 19 19 19 19 19 19 19 19 18 18 18 18 18 18 18 18 17 17 17 17 17 17 17 17 17 17 17 16 17 17 17
23 23 22 22 22 22 21 21 21 21 20 20 20 19 19 19 19 18 18 18 18 18 18 18 18 18 18 17 17 17 17 17 17 17 17 17 17 17 17 17 16 16 17
22 22 22 22 22 22 21 21 21 21 20 20 20 19 19 19 19 18 18 18 18 18 18 18 18 18 17 17 17 17 17 17 17 17 17 17 17 17 17 16 16 16 16
22 22 22 22 22 22 22 21 21 21 20 20 20 19 19 19 18 18 18 18 18 18 18 18 17 17 17 17 17 17 17 17 17 17 17 17 17 17 17 16 16 16 16
22 22 22 22 22 22 22 21 21 21 20 20 19 19 19 19 18 18 18 18 18 18 18 18 17 17 17 17 17 17 17 17 17 17 17 17 17 16 16 16 16 16 16
22 22 22 22 22 22 22 21 21 20 20 20 19 19 19 19 18 18 18 18 18 18 18 17 17 17 17 17 17 17 17 17 17 16 16 16 16 16 16 16 16 16 16
22 22 22 22 22 21 21 21 21 21 20 20 19 19 19 19 18 18 18 18 18 17 17 17 17 17 17 17 17 17 17 16 16 16 16 16 16 16 16 16 16 16 16
22 22 22 22 22 21 21 21 21 20 20 20 19 19 19 19 18 18 18 18 17 17 17 17 17 17 17 17 17 16 16 16 16 16 16 16 16 16 16 16 16 16 15
21 22 22 22 22 21 21 21 20 20 20 20 19 19 19 18 18 18 18 17 17 17 17 17 17 17 16 16 16 16 16 16 16 16 15 15 15 15 15 15 15 15 15
21 21 21 21 21 21 21 21 20 20 20 19 19 19 18 18 18 18 17 17 17 17 17 17 16 16 16 16 16 16 16 15 15 15 15 15 15 15 15 15 15 15 15
21 21 21 21 21 21 21 20 20 20 19 19 19 18 18 18 18 17 17 17 17 17 17 16 16 16 16 16 16 15 15 15 15 15 15 15 15 15 15 15 15 15 14
20 21 21 21 21 21 20 20 20 20 19 19 18 18 18 18 18 17 17 17 17 17 16 16 16 16 16 15 15 15 15 15 15 15 15 15 15 15 15 15 15 15 14
21 21 21 21 21 20 20 20 20 19 19 19 18 18 18 18 17 17 17 17 16 16 16 16 16 16 16 15 15 15 15 15 15 15 15 15 14 14 14 14 14 14 14
21 21 21 21 20 20 20 20 19 19 19 18 18 18 17 17 17 17 17 16 16 16 16 16 16 16 15 15 15 15 15 15 14 14 14 14 14 14 14 14 14 14 14
20 20 20 20 20 20 19 19 19 19 18 18 18 17 17 17 17 17 16 16 16 16 15 15 15 15 15 15 15 15 14 14 14 14 14 14 14 14 13 13 13 13 13
20 19 19 19 19 19 19 19 19 18 18 18 17 17 17 16 16 16 16 16 16 15 15 15 15 15 15 14 14 14 14 14 14 14 14 14 13 13 13 13 13 13 12
19 19 19 19 19 19 18 18 18 18 18 17 17 17 16 16 16 16 16 15 15 15 15 15 15 15 14 14 14 14 14 13 13 13 13 13 13 13 13 12 12 12 12
19 18 18 18 18 18 18 18 18 17 17 17 17 16 16 16 16 15 15 15 15 15 15 14 14 14 14 14 14 13 13 13 13 13 12 12 12 12 12 12 12 12 12
18 18 18 18 18 18 18 18 17 17 17 17 16 16 16 16 15 15 15 14 14 14 14 14 14 14 14 13 13 13 13 13 13 13 12 12 12 12 12 12 12 11 11
18 17 17 17 17 17 17 17 17 16 16 16 16 16 15 15 15 15 14 14 14 14 14 14 14 14 13 13 13 13 12 12 12 12 12 12 12 12 11 11 11 11 11
17 17 17 17 17 17 17 16 16 16 16 15 15 15 15 15 14 14 14 14 14 13 13 13 13 13 13 13 13 12 12 12 12 12 12 11 11 11 11 11 11 10 10
Wind_Speed
4 4 4 4 5 4 4 4 4 4 4 3 3 2 1 1 1 1 1 2 2 3 3 2 1 1 1 1 1 1 1 0 0 1 2 2 1 1 2 2 2 2 3
5 5 4 5 5 5 5 4 4 4 4 3 3 2 2 1 1 0 1 1 2 3 3 2 2 1 1 1 1 1 1 0 1 1 1 2 3 2 1 1 2 2 2
8 7 6 6 5 5 6 5 4 4 3 4 3 3 3 2 1 1 0 0 1 2 2 3 2 2 2 2 2 2 2 1 0 1 2 1 1 2 2 1 2 2 2
8 8 8 7 8 7 5 5 4 4 3 4 4 4 3 2 2 1 1 0 0 1 2 2 2 2 2 2 2 2 2 2 1 1 1 2 2 1 2 2 2 2 2
9 9 9 9 7 6 6 5 5 4 3 3 4 4 3 2 1 1 1 0 0 1 1 2 2 2 2 2 2 2 2 2 2 1 1 1 1 1 2 3 3 3 2
8 8 6 5 5 5 5 6 6 4 3 4 3 4 4 3 2 2 1 1 1 1 1 1 2 2 2 2 2 2 2 2 2 2 2 2 2 2 2 3 3 3 3
6 6 6 6 6 6 6 6 6 5 4 4 4 4 4 4 4 3 3 2 1 1 2 1 1 2 2 2 2 2 2 3 3 3 2 3 3 2 2 2 2 2 3
6 7 7 7 7 7 6 6 7 5 5 5 4 3 3 3 3 3 3 2 2 2 2 1 2 2 2 2 2 2 2 2 2 3 3 2 3 3 3 2 2 2 2
6 6 6 6 6 6 6 6 6 5 5 5 4 3 3 3 3 2 2 1 1 2 1 1 2 2 1 1 1 1 2 2 2 2 2 2 2 2 2 2 3 3 3
5 5 5 6 6 6 5 5 5 5 4 4 4 3 3 3 3 2 2 2 1 1 1 1 1 1 1 1 1 2 2 1 2 1 1 2 2 2 2 2 2 3 3
6 6 5 5 5 4 5 5 5 4 3 4 4 3 3 2 2 2 2 2 2 1 1 1 1 1 1 1 1 2 2 2 2 2 1 2 2 1 1 1 1 2 2
4 5 4 4 4 4 4 5 5 5 4 4 3 3 3 2 2 2 2 2 1 1 1 1 1 1 1 1 2 2 2 2 3 3 2 3 2 1 2 2 2 2 2
3 3 4 5 5 5 5 5 5 5 4 4 3 3 3 2 2 2 2 2 1 1 1 0 0 1 2 2 2 2 2 2 3 3 3 3 2 2 2 2 2 2 2
3 4 4 4 4 4 5 5 4 4 4 4 4 3 4 4 3 2 2 2 2 2 1 1 1 2 2 2 2 2 2 3 3 3 3 4 4 4 4 3 3 2 2
3 3 3 3 3 3 4 4 4 4 4 4 4 4 4 3 3 2 2 2 2 2 2 1 2 2 2 2 2 3 3 3 3 3 4 4 4 4 4 3 3 2 2
3 3 3 3 3 4 4 4 4 4 4 4 3 3 3 3 3 3 3 2 2 2 2 2 2 2 2 3 3 3 3 3 3 4 4 4 3 4 3 3 4 4 3
3 3 3 3 4 4 4 4 4 4 4 3 3 3 3 3 3 3 2 3 3 2 2 2 2 3 4 4 3 4 3 2 3 3 3 3 2 2 1 1 2 2 2
3 3 3 3 2 2 3 3 3 4 4 4 3 3 3 3 3 2 3 3 2 2 3 3 3 3 4 4 4 3 2 2 3 3 2 2 2 2 1 1 2 2 3
4 4 3 3 2 2 3 3 3 3 4 4 4 4 4 4 4 4 4 3 2 3 3 3 3 3 4 4 3 2 1 2 3 2 2 1 2 2 2 1 1 2 3
2 2 2 2 2 2 3 4 4 4 4 5 5 4 5 5 5 5 4 3 3 4 3 3 2 3 3 3 3 2 1 1 2 2 2 1 1 2 2 1 1 2 3
1 2 2 2 2 2 3 3 3 4 5 4 4 4 5 5 5 4 3 3 3 3 2 3 2 2 2 2 2 2 1 1 2 2 2 2 2 2 2 1 1 2 2
1 1 2 1 1 2 4 4 4 4 3 3 4 4 4 4 3 3 3 2 3 2 2 2 2 2 2 1 2 2 1 1 1 2 2 2 2 3 2 1 1 1 0
0 0 1 0 0 1 4 5 5 3 3 3 3 3 3 3 3 4 3 2 2 2 2 2 3 3 2 1 2 2 1 1 1 1 2 2 2 2 1 1 1 1 1
1 0 1 0 2 2 3 4 3 2 3 3 3 3 3 2 2 2 3 3 3 3 3 3 3 2 2 1 1 1 1 1 1 1 2 2 2 2 2 2 2 1 1
2 1 2 2 3 3 2 2 2 3 3 3 3 2 2 3 3 2 2 3 4 4 4 4 4 3 3 3 3 2 2 1 1 0 1 2 2 2 2 2 2 1 1
1 1 2 2 3 2 2 2 2 4 4 3 3 2 2 2 2 2 0 1 1 2 4 4 4 3 3 2 2 2 2 1 2 2 1 0 0 0 1 1 1 1 1
Wind_Direction
200 174 171 163 154 154 155 159 150 143 131 120 121 121 119 105 98 126 124 147 147 142 140 143 126 127 160 192 165 131 97 353 136 49 343 335 315 257 254 254 253 264 257
177 173 174 173 174 174 176 173 164 155 152 149 142 138 133 136 144 113 77 143 162 164 166 162 166 168 185 218 200 147 148 255 106 119 49 341 343 352 303 274 256 267 268
193 185 182 189 189 191 187 182 172 163 161 150 124 103 84 66 65 45 346 327 155 167 172 167 172 183 187 214 223 198 182 213 252 182 158 159 274 318 327 303 285 287 274
193 187 186 189 197 196 179 164 158 154 155 151 150 155 163 180 201 193 206 268 136 171 176 166 173 188 189 208 225 201 193 183 226 244 211 199 188 214 313 320 309 299 284
193 192 193 195 190 179 166 161 152 150 143 145 156 161 175 182 163 143 149 217 292 227 197 185 180 193 205 213 213 187 188 191 199 207 203 191 192 202 216 286 312 320 297
187 186 183 170 166 157 157 156 155 163 158 158 164 170 179 173 166 181 191 240 281 296 265 203 193 204 210 216 217 207 202 210 206 207 205 191 193 205 205 235 271 295 299
177 172 169 169 170 166 168 164 166 176 174 171 180 183 185 185 194 203 205 220 251 281 272 251 221 222 222 215 203 205 219 219 215 218 227 221 222 206 197 214 250 281 301
175 180 179 177 178 180 178 170 173 182 180 177 185 188 185 193 205 206 203 212 228 252 260 239 237 243 230 219 196 216 234 229 232 240 233 234 239 213 199 198 209 275 305
184 185 178 175 177 181 183 179 180 181 183 178 173 183 188 191 200 199 193 209 231 245 249 242 251 257 238 219 199 230 246 243 246 250 245 249 260 236 215 207 202 209 268
184 180 175 180 184 184 181 166 170 179 182 175 180 188 186 188 185 170 181 198 224 241 244 256 260 271 262 222 212 239 251 246 267 254 245 253 263 251 228 216 214 209 222
186 181 180 182 177 168 170 171 172 168 175 182 182 177 181 181 174 185 202 203 219 233 249 257 268 277 275 243 217 238 240 243 271 274 246 258 241 239 243 219 206 209 206
182 173 167 161 165 173 176 179 180 184 190 182 176 178 175 173 184 203 213 201 212 243 241 249 279 285 282 257 230 248 251 244 256 261 252 268 261 242 246 229 230 231 219
137 145 155 168 180 184 183 183 189 189 185 170 170 168 174 186 197 208 215 204 203 226 214 176 262 292 287 270 257 246 250 249 254 253 243 252 248 253 250 243 249 250 242
136 149 170 182 182 179 181 178 191 183 177 171 176 189 197 197 200 209 208 210 202 203 211 222 237 265 279 273 269 258 255 259 264 258 247 249 243 246 243 246 250 244 242
133 149 167 175 171 170 176 174 180 175 175 174 186 200 201 194 190 201 212 221 223 224 228 241 266 276 265 266 270 264 259 259 269 269 261 256 254 254 244 247 248 239 238
169 162 154 152 168 176 175 168 171 170 162 178 200 205 199 201 204 209 212 227 247 249 240 244 260 286 292 289 261 248 255 255 256 269 278 273 267 277 277 263 248 235 235
186 178 185 191 195 189 177 179 183 165 164 181 195 198 201 213 224 223 218 232 242 241 250 250 253 274 280 277 266 246 242 248 256 271 286 290 294 283 289 331 348 323 294
186 195 190 195 207 188 178 174 159 173 182 189 199 203 208 220 222 212 221 232 232 233 240 248 254 268 285 286 277 268 249 257 262 267 272 277 296 302 334 360 358 350 337
194 201 194 183 176 175 166 149 162 178 190 204 210 211 210 220 222 222 227 228 224 241 248 248 250 263 286 290 283 277 258 268 284 292 292 276 289 318 3 46 356 338 332
181 179 155 138 162 184 149 153 177 186 209 217 216 213 211 214 220 223 224 226 221 234 248 256 251 249 274 290 281 260 236 270 290 300 303 301 311 338 2 1 244 282 302
168 146 135 149 188 183 157 175 191 212 222 218 212 211 213 213 215 216 218 218 222 236 250 257 263 253 260 277 274 250 228 247 274 285 300 312 333 326 314 296 251 252 282
55 124 139 177 185 167 167 192 219 222 209 202 205 212 217 220 219 212 222 219 210 222 245 257 279 281 274 272 274 254 246 268 253 273 294 307 306 307 310 325 294 285 99
291 132 153 215 305 201 190 206 229 219 197 198 213 222 221 220 211 207 215 219 209 216 238 242 259 278 289 287 279 266 261 277 287 301 309 312 309 322 346 10 19 70 88
284 267 125 223 275 256 230 224 229 206 187 202 220 221 210 216 215 210 208 210 212 217 226 237 248 264 273 272 285 295 295 328 342 360 20 28 47 50 37 25 38 63 101
275 238 205 220 249 263 261 245 207 185 188 204 216 221 213 203 208 218 220 216 219 211 210 223 228 228 246 247 220 208 229 249 254 102 60 52 49 39 31 21 19 29 34
255 256 252 244 256 261 267 269 219 191 187 201 217 223 222 213 203 197 257 23 230 223 213 217 220 235 237 229 201 211 219 176 130 105 93 42 13 344 347 352 351 353 342
Height
1512 1514 1515 1517 1519 1520 1521 1522 1523 1524 1526 1527 1528 1529 1529 1530 1531 1532 1532 1533 1533 1534 1534 1534 1534 1535 1535 1535 1535 1535 1535 1535 1534 1534 1534 1534 1534 1534 1533 1533 1533 1533 1533
1511 1513 1515 1516 1518 1519 1521 1522 1524 1525 1526 1527 1528 1529 1530 1530 1531 1531 1532 1532 1533 1533 1533 1534 1534 1534 1534 1534 1534 1534 1534 1534 1534 1534 1533 1532 1533 1532 1532 1532 1532 1532 1531
1508 1511 1513 1515 1517 1518 1520 1522 1523 1525 1526 1527 1528 1529 1529 1529 1530 1530 1531 1532 1532 1532 1533 1533 1533 1533 1533 1533 1533 1533 1533 1533 1533 1533 1533 1532 1531 1531 1531 1531 1531 1530 1530
1506 1508 1510 1512 1514 1516 1519 1520 1522 1524 1525 1526 1527 1528 1528 1528 1529 1530 1530 1531 1531 1532 1532 1532 1532 1532 1532 1532 1532 1532 1532 1532 1532 1532 1531 1532 1531 1531 1530 1530 1530 1529 1529
1503 1506 1508 1510 1513 1515 1517 1519 1521 1523 1524 1525 1525 1526 1527 1528 1528 1529 1529 1530 1530 1530 1530 1531 1531 1531 1531 1531 1531 1531 1530 1530 1530 1530 1530 1530 1530 1529 1529 1528 1528 1527 1527
1501 1504 1506 1509 1511 1514 1516 1518 1520 1521 1523 1524 1525 1525 1526 1527 1527 1528 1528 1528 1529 1529 1529 1529 1529 1529 1530 1530 1529 1529 1529 1529 1529 1529 1528 1528 1528 1527 1527 1526 1525 1525 1525
1499 1502 1504 1507 1509 1512 1514 1516 1518 1520 1521 1522 1523 1524 1525 1526 1526 1527 1527 1527 1527 1527 1528 1528 1528 1528 1528 1528 1528 1527 1527 1527 1527 1527 1526 1526 1525 1525 1525 1524 1523 1523 1522
1497 1500 1502 1505 1507 1510 1512 1514 1516 1518 1519 1520 1521 1522 1523 1524 1525 1526 1526 1526 1526 1526 1526 1526 1526 1526 1526 1526 1526 1526 1525 1525 1525 1524 1524 1523 1523 1523 1522 1522 1522 1521 1520
1496 1498 1501 1503 1506 1508 1510 1512 1514 1516 1517 1518 1519 1520 1522 1523 1523 1524 1525 1525 1525 1525 1525 1525 1524 1524 1524 1524 1524 1523 1523 1523 1522 1522 1522 1521 1521 1520 1520 1520 1520 1520 1518
1495 1497 1500 1502 1505 1507 1509 1511 1512 1514 1515 1516 1517 1519 1520 1521 1522 1522 1523 1523 1523 1523 1523 1523 1523 1523 1522 1522 1522 1521 1521 1520 1520 1520 1519 1519 1518 1518 1517 1517 1517 1517 1516
1493 1496 1499 1501 1503 1505 1507 1509 1511 1513 1514 1515 1516 1517 1519 1520 1520 1521 1521 1522 1522 1522 1522 1522 1521 1521 1520 1520 1519 1519 1518 1518 1517 1517 1517 1516 1516 1515 1515 1515 1514 1514 1513
1493 1495 1498 1500 1502 1504 1506 1508 1510 1512 1513 1514 1515 1516 1517 1518 1518 1519 1520 1520 1520 1520 1520 1519 1519 1519 1518 1517 1517 1516 1516 1515 1514 1514 1514 1513 1513 1513 1512 1512 1511 1511 1510
1492 1495 1497 1499 1501 1503 1505 1506 1508 1509 1511 1512 1514 1515 1515 1516 1516 1517 1517 1518 1518 1518 1518 1517 1517 1516 1516 1516 1515 1514 1513 1512 1512 1511 1511 1510 1510 1509 1509 1509 1508 1508 1507
1492 1494 1496 1498 1500 1501 1503 1504 1506 1507 1509 1511 1512 1512 1513 1514 1514 1515 1515 1516 1516 1516 1516 1515 1515 1514 1514 1513 1513 1512 1510 1509 1509 1508 1508 1507 1507 1506 1506 1505 1505 1505 1504
1491 1493 1494 1496 1498 1500 1502 1503 1505 1506 1508 1509 1509 1509 1510 1512 1512 1513 1513 1513 1514 1514 1513 1513 1512 1512 1511 1510 1510 1509 1508 1507 1505 1505 1504 1504 1503 1503 1503 1502 1502 1501 1501
1490 1492 1494 1495 1497 1499 1500 1501 1503 1505 1506 1507 1507 1508 1509 1509 1510 1510 1511 1511 1511 1511 1511 1510 1510 1509 1508 1508 1507 1506 1505 1504 1503 1502 1501 1500 1499 1499 1499 1499 1498 1498 1498
1490 1492 1493 1495 1496 1497 1498 1499 1501 1502 1503 1504 1505 1506 1506 1507 1508 1508 1508 1508 1508 1508 1508 1507 1507 1506 1505 1505 1504 1503 1502 1501 1500 1499 1497 1496 1496 1495 1495 1495 1495 1495 1494
1490 1491 1493 1494 1495 1496 1497 1498 1499 1500 1501 1502 1502 1503 1504 1505 1505 1505 1505 1505 1505 1505 1504 1504 1503 1503 1502 1502 1501 1501 1499 1498 1497 1496 1495 1493 1493 1492 1492 1491 1491 1491 1491
1489 1491 1491 1492 1493 1494 1495 1496 1497 1497 1498 1498 1499 1500 1501 1502 1502 1502 1502 1502 1502 1501 1501 1500 1500 1499 1499 1499 1498 1497 1496 1494 1493 1493 1492 1491 1490 1489 1489 1488 1487 1487 1488
1488 1489 1490 1491 1492 1493 1493 1494 1494 1495 1495 1496 1496 1497 1498 1498 1498 1498 1498 1498 1498 1498 1498 1497 1497 1496 1496 1496 1495 1494 1492 1491 1490 1489 1488 1488 1487 1486 1486 1485 1485 1484 1484
1487 1488 1488 1489 1489 1490 1491 1491 1492 1492 1492 1493 1493 1494 1494 1495 1495 1495 1495 1495 1495 1494 1494 1494 1493 1493 1493 1492 1492 1491 1489 1488 1487 1486 1485 1484 1484 1484 1483 1483 1482 1482 1481
1485 1486 1486 1486 1487 1487 1488 1488 1488 1488 1489 1490 1490 1490 1491 1491 1491 1491 1491 1491 1491 1491 1491 1491 1490 1490 1490 1489 1488 1487 1486 1485 1484 1483 1483 1482 1482 1481 1480 1480 1480 1479 1479
1484 1484 1484 1484 1484 1485 1485 1485 1485 1486 1486 1486 1486 1487 1487 1487 1487 1487 1487 1487 1487 1488 1487 1487 1487 1486 1486 1486 1485 1485 1484 1483 1482 1481 1481 1480 1479 1479 1479 1478 1478 1477 1476
1482 1482 1482 1481 1482 1482 1482 1483 1483 1483 1483 1483 1483 1483 1483 1483 1483 1483 1484 1484 1484 1484 1484 1484 1483 1483 1483 1483 1483 1482 1481 1481 1480 1479 1478 1478 1477 1477 1477 1476 1476 1475 1474
1480 1480 1480 1479 1479 1479 1479 1479 1479 1480 1480 1480 1480 1480 1480 1480 1480 1480 1480 1480 1480 1481 1481 1481 1481 1481 1480 1480 1480 1480 1478 1478 1477 1476 1476 1475 1475 1475 1474 1474 1474 1473 1472
1478 1478 1478 1477 1476 1476 1476 1476 1476 1476 1476 1476 1477 1477 1476 1476 1476 1476 1477 1477 1478 1478 1478 1478 1479 1478 1478 1478 1477 1477 1476 1475 1475 1474 1473 1473 1472 1472 1472 1472 1471 1471 1470